Zurück zum Katalog

STARLINK-31545

AktivKommunikationVLEO
NORAD 59400·PAYLOAD·🇺🇸 United States

Gestartet Apr 5, 2024 von Cape Canaveral Space Force Station

Loading…

Nächste Überflüge (nächste 24 Stunden)

TLE

AktuellSource: CelesTrak SupGP

Epoche: Sep 14, 2026, 20:56 UTC

1 59400C 24064C   26257.87270833  .00027101  00000+0  98166-3 0  2574
2 59400  43.0006  67.5489 0001436 274.0163   5.5707 15.27562418    15

Verfolge STARLINK-31545 in Echtzeit mit AllMySat

Download on the App Store